Total_Precipitation_Accumulation
1.37 1.42 1.19 1.00 1.13 1.14 1.10 1.10 1.13 1.04 1.06 1.02 1.03 1.03 0.84 0.98 1.32 1.61 1.66 1.58 1.67 1.71 1.77 1.55 1.18 1.08 1.10 1.08 1.09 1.04 0.94 0.94 0.80 0.51 0.28 0.23 0.25 0.28 0.26 0.24 0.18 0.13 0.16
1.32 1.55 1.67 1.40 1.71 2.06 2.10 1.80 1.93 1.88 1.64 1.50 1.19 1.00 0.80 0.67 0.83 1.43 1.75 1.61 1.40 1.64 1.93 1.91 1.56 1.38 1.34 1.27 1.19 1.04 0.86 0.81 0.88 0.68 0.48 0.36 0.28 0.24 0.29 0.33 0.31 0.26 0.19
1.93 1.82 1.65 1.39 1.76 1.58 1.21 0.99 0.86 0.82 0.79 0.83 0.83 0.82 0.84 0.61 0.53 0.72 1.17 1.69 1.56 1.37 1.56 1.86 1.61 1.39 1.21 1.16 1.09 0.90 0.77 0.74 0.85 0.89 0.67 0.49 0.43 0.36 0.39 0.49 0.43 0.25 0.15
1.70 1.73 1.52 1.37 1.28 1.03 0.88 0.78 0.65 0.57 0.36 0.43 0.63 0.78 0.99 0.93 0.95 0.92 0.97 1.06 1.46 1.43 1.32 1.32 1.50 1.44 1.07 0.91 0.90 0.94 0.99 0.92 0.74 0.76 0.71 0.62 0.49 0.46 0.73 0.61 0.40 0.31 0.28
1.46 1.91 1.81 1.56 1.43 1.52 1.54 1.41 0.88 0.76 0.66 0.52 0.48 0.45 0.79 1.15 0.84 0.77 0.72 1.01 1.20 1.40 1.41 1.43 1.20 1.48 1.45 1.24 1.11 0.91 0.92 1.03 1.07 0.93 0.87 0.81 0.76 0.80 0.88 0.81 0.82 0.69 0.77
0.70 1.16 1.60 1.97 1.29 1.34 1.61 1.81 1.36 0.94 1.02 0.78 0.85 0.68 0.62 0.87 1.28 0.93 0.79 0.61 0.82 1.03 1.09 1.08 1.48 1.70 1.24 1.26 1.36 1.39 1.33 1.21 1.09 1.09 0.98 0.87 0.71 0.70 0.76 0.90 0.92 1.05 1.14
0.58 0.97 1.11 1.39 1.81 1.40 1.57 1.68 1.93 1.59 1.26 1.24 1.00 0.98 0.91 0.87 1.41 0.98 1.07 0.96 0.85 0.71 0.85 0.96 0.90 1.58 1.91 1.33 1.46 1.55 1.71 1.90 1.62 1.41 1.24 1.28 1.33 1.38 1.40 1.35 1.25 1.20 1.10
0.53 0.71 0.86 0.81 1.32 1.68 1.34 1.29 1.36 1.52 1.62 1.52 1.21 1.00 0.77 0.81 1.03 1.30 1.43 1.08 0.99 0.80 0.73 0.81 0.90 0.99 1.65 1.71 1.38 1.56 1.69 1.99 2.40 2.20 2.04 2.06 2.04 1.80 1.42 1.43 1.59 1.75 1.74
0.61 0.80 0.99 1.10 1.13 1.22 1.48 1.35 1.45 1.35 1.33 1.45 1.29 0.95 0.85 0.87 1.30 1.24 1.25 0.92 1.10 1.06 0.94 1.03 1.02 0.86 1.47 1.71 1.35 1.50 1.60 1.87 2.46 2.37 2.19 2.24 2.22 2.29 1.86 1.65 1.96 2.26 2.65
0.53 0.66 0.80 0.97 1.16 1.39 1.71 1.85 1.75 1.60 1.38 1.22 1.20 1.18 1.38 1.09 1.48 1.36 1.34 0.94 0.86 1.02 1.01 1.15 1.77 1.29 1.34 1.14 1.00 1.01 1.47 1.89 1.78 1.97 1.99 2.06 2.15 2.45 2.68 2.17 2.14 2.54 2.77
0.59 0.61 0.68 0.80 1.03 1.20 1.24 1.41 1.67 1.85 1.80 1.51 1.39 1.31 1.24 1.42 1.57 1.74 1.56 1.24 1.25 1.11 1.16 1.27 1.46 1.91 1.47 1.55 1.57 1.40 2.24 2.29 2.27 1.87 1.95 2.08 2.02 1.94 2.12 2.29 2.34 2.39 2.44
0.68 0.66 0.79 0.84 0.92 1.02 1.06 1.09 1.09 1.22 1.53 1.76 1.63 1.62 1.65 1.71 1.90 1.82 1.72 1.68 1.68 1.36 1.60 1.45 1.80 1.81 1.36 1.47 1.69 2.16 2.23 1.89 1.75 2.04 2.20 2.32 2.35 2.32 2.24 2.14 2.06 2.09 2.18
0.70 0.80 0.77 0.71 0.65 0.60 0.64 0.81 0.94 0.97 0.94 1.00 1.13 1.33 1.50 1.59 1.76 1.93 1.86 1.86 1.88 1.74 2.07 2.37 2.26 1.77 1.52 1.64 1.87 1.89 1.81 1.77 1.96 2.14 2.26 2.32 2.23 2.17 1.96 1.76 1.64 1.54 1.46
0.17 0.25 0.28 0.32 0.37 0.34 0.40 0.46 0.48 0.58 0.70 0.85 0.95 1.02 1.08 1.10 1.15 1.21 1.25 1.34 1.52 1.66 1.98 2.07 2.00 1.89 1.85 1.96 1.94 1.87 1.85 1.96 2.05 2.14 2.13 2.02 1.81 1.64 1.57 1.63 1.55 1.44 1.32
0.14 0.17 0.18 0.20 0.25 0.27 0.34 0.44 0.42 0.59 0.62 0.67 0.84 0.89 0.94 1.16 1.52 1.49 1.45 1.52 1.62 1.81 1.90 2.04 2.07 2.05 2.03 2.04 1.97 1.92 1.88 1.79 1.66 1.62 1.53 1.44 1.31 1.13 1.04 0.97 1.00 1.04 1.21
0.17 0.19 0.24 0.18 0.19 0.22 0.22 0.35 0.56 0.63 0.59 0.65 0.75 0.78 1.10 1.32 1.41 1.37 1.36 1.39 1.41 1.41 1.36 1.43 1.39 1.32 1.25 1.17 1.12 1.08 1.02 1.02 0.99 0.90 0.87 0.82 0.84 0.89 0.94 0.98 1.00 1.04 1.10
0.31 0.28 0.29 0.31 0.34 0.36 0.37 0.36 0.51 0.71 0.76 0.93 1.01 1.03 1.02 1.14 1.02 0.94 0.89 0.83 0.82 0.75 0.87 0.85 0.80 0.76 0.69 0.60 0.58 0.53 0.51 0.45 0.45 0.56 0.59 0.59 0.61 0.64 0.63 0.66 0.70 0.77 0.83
0.97 0.98 0.90 0.88 0.94 1.06 1.19 1.30 1.35 1.39 1.40 1.48 1.44 1.25 1.20 1.14 1.06 0.96 0.84 0.67 0.70 0.62 0.60 0.53 0.47 0.39 0.31 0.26 0.22 0.21 0.20 0.22 0.27 0.27 0.29 0.31 0.33 0.38 0.42 0.40 0.40 0.44 0.45
1.66 1.78 1.77 1.72 1.62 1.43 1.27 1.16 1.13 1.13 1.13 1.18 1.14 1.04 0.98 0.85 0.71 0.62 0.53 0.59 0.55 0.44 0.35 0.29 0.22 0.18 0.17 0.16 0.18 0.19 0.21 0.21 0.19 0.20 0.17 0.17 0.19 0.24 0.28 0.26 0.26 0.27 0.31
1.08 1.01 0.90 0.86 0.83 0.78 0.75 0.69 0.66 0.64 0.60 0.58 0.55 0.53 0.42 0.33 0.31 0.26 0.23 0.26 0.24 0.21 0.17 0.16 0.13 0.12 0.13 0.14 0.15 0.15 0.16 0.14 0.14 0.14 0.13 0.14 0.14 0.14 0.16 0.18 0.21 0.22 0.23
0.66 0.65 0.61 0.56 0.54 0.50 0.46 0.40 0.36 0.33 0.32 0.29 0.30 0.21 0.13 0.16 0.19 0.16 0.14 0.16 0.16 0.16 0.16 0.16 0.13 0.14 0.14 0.15 0.16 0.18 0.18 0.16 0.16 0.17 0.17 0.16 0.17 0.22 0.19 0.21 0.20 0.16 0.14
0.38 0.34 0.29 0.26 0.23 0.22 0.20 0.19 0.20 0.19 0.16 0.15 0.14 0.13 0.10 0.14 0.16 0.16 0.15 0.16 0.13 0.12 0.15 0.22 0.23 0.19 0.20 0.23 0.25 0.29 0.24 0.22 0.23 0.27 0.27 0.24 0.23 0.24 0.26 0.27 0.26 0.26 0.21
0.16 0.14 0.12 0.12 0.12 0.12 0.13 0.14 0.16 0.19 0.20 0.21 0.20 0.18 0.13 0.14 0.13 0.12 0.15 0.18 0.24 0.30 0.29 0.31 0.35 0.31 0.25 0.28 0.32 0.34 0.34 0.24 0.25 0.31 0.33 0.25 0.21 0.23 0.26 0.25 0.23 0.24 0.20
0.10 0.10 0.09 0.10 0.11 0.12 0.14 0.14 0.14 0.14 0.17 0.23 0.26 0.27 0.26 0.27 0.28 0.30 0.34 0.39 0.42 0.44 0.41 0.42 0.42 0.39 0.36 0.35 0.34 0.31 0.28 0.25 0.26 0.27 0.33 0.36 0.26 0.21 0.27 0.26 0.23 0.22 0.21
0.08 0.08 0.08 0.10 0.14 0.15 0.19 0.20 0.22 0.24 0.25 0.26 0.27 0.28 0.27 0.31 0.35 0.37 0.38 0.31 0.29 0.29 0.30 0.32 0.36 0.37 0.37 0.41 0.44 0.42 0.39 0.34 0.34 0.34 0.41 0.38 0.31 0.31 0.32 0.30 0.25 0.27 0.25
0.08 0.10 0.13 0.16 0.20 0.22 0.27 0.31 0.34 0.34 0.36 0.36 0.40 0.41 0.39 0.33 0.27 0.24 0.21 0.20 0.17 0.16 0.16 0.19 0.19 0.18 0.18 0.20 0.22 0.27 0.26 0.28 0.33 0.36 0.40 0.40 0.38 0.36 0.35 0.31 0.26 0.31 0.31